T 2006 Feb. 23.47475 TT                                 Nakano

q   1.5196037            (2000.0)            P               Q

z  -0.0001200      Peri.   39.96734     +0.87855886     -0.47365719

 +/-0.0000021      Node   347.84758     +0.32831619     +0.69240524

e   1.0001823      Incl.   16.98852     +0.34690462     +0.54426450

From 690 observations 2005 Mar. 12-2006 Mar. 28, mean residual 0".55.

   (1/a)org.= -0.000016, (1/a)fut.= -0.002557 (+/-0.000002), Q= 7.



NAKANO

         **** Don't distribute anyone except personal use only ****

                (C) Copyright 2006 OAA/ComputingSection

write mail from CFAD0::NAKANO on 2006-04-06 06:07:49(JST).

 



    C/2005 E2 (McNaught)

Epoch 2006 Mar. 6.0 TT = JDT 2453800.5  

T 2006 Feb. 23.47500 TT                                 Nakano

q   1.5195995            (2000.0)            P               Q

z  -0.0001117      Peri.   39.96728     +0.87855660     -0.47366167

 +/-0.0000021      Node   347.84795     +0.32832155     +0.69240384

e   1.0001697      Incl.   16.98839     +0.34690526     +0.54426239

From 612 observations 2005 Mar. 12-2006 Feb. 1, mean residual 0".48.

   (1/a)org.= -0.000008, (1/a)fut.= -0.002549 (+/-0.000002), Q= 7.





NAKANO

         **** Don't distribute anyone except personal use only ****

                (C) Copyright 2006 OAA/ComputingSection

write mail from CFAD0::NAKANO on 2006-02-06 06:49:21(JST).

 



    C/2005 E2 (McNaught)

Epoch 2006 Mar. 6.0 TT = JDT 2453800.5  

T 2006 Feb. 23.47832 TT                                 Nakano

q   1.5196153            (2000.0)            P               Q

z  -0.0000820      Peri.   39.96731     +0.87855430     -0.47366617

 +/-0.0000029      Node   347.84822     +0.32832669     +0.69240260

e   1.0001246      Incl.   16.98827     +0.34690622     +0.54426005

From 439 observations 2005 Mar. 12-Dec. 4, mean residual 0".41.

   (1/a)org.= +0.000022, (1/a)fut.= -0.002521 (+/-0.000003), Q= 7.



NAKANO

         **** Don't distribute anyone except personal use only ****

                (C) Copyright 2005 OAA/ComputingSection

write mail from CFAD0::NAKANO on 2005-12-08 01:42:10(JST).

 



    C/2005 E2 (McNaught)

Epoch 2006 Mar. 6.0 TT = JDT 2453800.5  

T 2006 Feb. 23.48132 TT                                 Nakano

q   1.5196279            (2000.0)            P               Q

z  -0.0000682      Peri.   39.96754     +0.87855278     -0.47366896

 +/-0.0000050      Node   347.84817     +0.32832876     +0.69240165

e   1.0001037      Incl.   16.98827     +0.34690811     +0.54425883

From 350 observations 2005 Mar. 12-Oct. 15, mean residual 0".40.

   (1/a)org.= +0.000035, (1/a)fut.= -0.002508 (+/-0.000005), Q= 7.



NAKANO

         **** Don't distribute anyone except personal use only ****

                (C) Copyright 2005 OAA/ComputingSection

write mail from CFAD0::NAKANO on 2005-11-03 23:39:18(JST).

 



    C/2005 E2 (McNaught)                                                  

Epoch 2006 Mar. 6.0 TT = JDT 2453800.5  

T 2006 Feb. 23.47843 TT                                 Nakano

q   1.5196243            (2000.0)            P               Q

z  -0.0000778      Peri.   39.96741     +0.87855619     -0.47366241

 +/-0.0000112      Node   347.84787     +0.32832250     +0.69240431

e   1.0001182      Incl.   16.98832     +0.34690539     +0.54426115

From 206 observations 2005 Mar. 12-Aug. 6, mean residual 0".42.

   (1/a)org.= +0.000026, (1/a)fut.= -0.002517 (+/-0.000011), Q= 6.

NAKANO

         **** Don't distribute anyone except personal use only ****

                (C) Copyright 2005 OAA/ComputingSection

write mail from CFAD0::NAKANO on 2005-08-10 06:05:41(JST).

 





    C/2005 E2 (McNaught)                                                  

Epoch 2006 Mar. 6.0 TT = JDT 2453800.5  

T 2006 Feb. 23.54240 TT                                 Nakano

q   1.5201693            (2000.0)            P               Q

z  +0.0000557      Peri.   39.95465     +0.87861910     -0.47354964

 +/-0.0000293      Node   347.85347     +0.32825219     +0.69244073

e   0.9999153      Incl.   16.98764     +0.34681259     +0.54431294

From 93 observations 2005 Mar. 12-May 31, mean residual 0".37.

   (1/a)org.= +0.000160, (1/a)fut.= -0.002368 (+/-0.000029), Q= 5.



NAKANO

         **** Don't distribute anyone except personal use only ****

                (C) Copyright 2005 OAA/ComputingSection

write mail from CFAD0::NAKANO on 2005-06-05 05:59:11(JST).

 





◎C/2005 E2の軌道と予報位置です



  久万の中村彰正氏の5月15日の観測によると,彗星のCCD全光度は15.1等で

した.氏によると尾が見られるとのことです.なお,山本速報No.2465に記し

たとおり,彗星は,来年初から春にかけて,9等級まで明るくなるでしょう.



    C/2005 E2 (McNaught)                                                  

T 2006 Feb. 23.52041 TT                                 Nakano

q   1.5198343            (2000.0)            P               Q

                   Peri.   39.96495     +0.87854052     -0.47369452

                   Node   347.85256     +0.32835891     +0.69238285

e   1.0            Incl.   16.98832     +0.34691063     +0.54426050

From 65 observations 2005 Mar. 12-May 15.

 

Date/        TT  R.A.(2000) Decl.     Delta   r     Daily motion  Mag.  Moon Age

              h    h  m       。  ,                      ,  / PA 。  m1      。

2005 May  15 18  20 35.52  -36 25.4   3.313  3.807     4.8 / 120  13.9  160  .44

          16 18  20 35.86  -36 27.8   3.290  3.798     4.6 / 122  13.9  150  .54

          17 18  20 36.19  -36 30.2   3.268  3.788     4.5 / 124  13.9  138  .63

          18 18  20 36.50  -36 32.7   3.245  3.778     4.3 / 126  13.8  127  .72

          19 18  20 36.79  -36 35.3   3.223  3.769     4.2 / 129  13.8  114  .81

          20 18  20 37.06  -36 37.9   3.201  3.759     4.1 / 131  13.8  102  .88

          21 18  20 37.32  -36 40.6   3.179  3.749     3.9 / 134  13.8   89  .94

          22 18  20 37.55  -36 43.3   3.157  3.740     3.8 / 137  13.7   75  .98

          23 18  20 37.77  -36 46.2   3.135  3.730     3.7 / 141  13.7   61 1.00

          24 18  20 37.97  -36 49.0   3.114  3.720     3.6 / 144  13.7   48  .99

          25 18  20 38.14  -36 52.0   3.092  3.710     3.5 / 148  13.6   34  .95

          26 18  20 38.30  -36 55.0   3.071  3.701     3.5 / 152  13.6   21  .88

          27 18  20 38.44  -36 58.0   3.049  3.691     3.4 / 156  13.6   13  .80

          28 18  20 38.56  -37 01.2   3.028  3.681     3.4 / 160  13.6   18  .70

          29 18  20 38.65  -37 04.4   3.007  3.672     3.4 / 164  13.5   29  .58

          30 18  20 38.73  -37 07.6   2.986  3.662     3.4 / 169  13.5   42  .47

          31 18  20 38.78  -37 10.9   2.966  3.652     3.4 / 173  13.5   55  .36

     June  1 18  20 38.81  -37 14.2   2.945  3.642     3.4 / 178  13.5   68  .26

           2 18  20 38.83  -37 17.7   2.925  3.633     3.5 / 182  13.4   81  .17

           3 18  20 38.81  -37 21.1   2.905  3.623     3.5 / 187  13.4   94  .10

           4 18  20 38.78  -37 24.6   2.885  3.613     3.6 / 191  13.4  107  .05

           5 18  20 38.72  -37 28.2   2.865  3.604     3.7 / 195  13.4  119  .01

           6 18  20 38.64  -37 31.8   2.845  3.594     3.8 / 198  13.3  131  .00

           7 18  20 38.54  -37 35.4   2.825  3.584     4.0 / 202  13.3  142  .01

           8 18  20 38.42  -37 39.1   2.806  3.574     4.1 / 205  13.3  153  .03

           9 18  20 38.27  -37 42.9   2.787  3.565     4.3 / 208  13.2  162  .08

          10 18  20 38.10  -37 46.6   2.768  3.555     4.5 / 211  13.2  166  .13

          11 18  20 37.90  -37 50.4   2.749  3.545     4.6 / 214  13.2  161  .20

          12 18  20 37.68  -37 54.3   2.730  3.535     4.8 / 217  13.2  152  .29

          13 18  20 37.44  -37 58.1   2.712  3.525     5.0 / 219  13.1  141  .37

          14 18  20 37.17  -38 02.0   2.693  3.516     5.2 / 221  13.1  130  .47

          15 18  20 36.88  -38 05.9   2.675  3.506     5.4 / 224  13.1  118  .57

          16 18  20 36.56  -38 09.8   2.657  3.496     5.6 / 226  13.1  106  .67

          17 18  20 36.22  -38 13.8   2.640  3.486     5.8 / 227  13.0   93  .76

          18 18  20 35.85  -38 17.7   2.622  3.477     6.1 / 229  13.0   80  .85

          19 18  20 35.46  -38 21.6   2.605  3.467     6.3 / 231  13.0   66  .92

          20 18  20 35.05  -38 25.6   2.588  3.457     6.5 / 233  13.0   53  .97

          21 18  20 34.61  -38 29.5   2.571  3.447     6.7 / 234  12.9   39 1.00

          22 18  20 34.15  -38 33.5   2.554  3.437     6.9 / 235  12.9   25  .99

          23 18  20 33.66  -38 37.4   2.538  3.428     7.2 / 237  12.9   16  .96

          24 18  20 33.14  -38 41.3   2.522  3.418     7.4 / 238  12.8   17  .90

          25 18  20 32.61  -38 45.2   2.506  3.408     7.6 / 239  12.8   28  .82

          26 18  20 32.04  -38 49.1   2.490  3.398     7.9 / 241  12.8   41  .72

          27 18  20 31.46  -38 52.9   2.474  3.388     8.1 / 242  12.8   54  .61

          28 18  20 30.85  -38 56.8   2.459  3.378     8.3 / 243  12.7   68  .50

          29 18  20 30.21  -39 00.5   2.444  3.369     8.5 / 244  12.7   81  .39

          30 18  20 29.55  -39 04.2   2.429  3.359     8.8 / 245  12.7   93  .29

     July  1 18  20 28.87  -39 07.9   2.415  3.349     9.0 / 246  12.7  106  .21

NAKANO

         **** Don't distribute anyone except personal use only ****

                (C) Copyright 2005 OAA/ComputingSection

write mail from CFAD0::NAKANO on 2005-05-20 00:29:08(JST).

 



    C/2005 E2 (McNaught)

T 2006 Feb. 23.45507 TT                                 Nakano

q   1.5189048            (2000.0)            P               Q

                   Peri.   39.99840     +0.87835870     -0.47402284

                   Node   347.84007     +0.32857703     +0.69227354

e   1.0            Incl.   16.98975     +0.34716441     +0.54411367

From 49 observations 2005 Mar. 12-Apr. 30.



NAKANO

         **** Don't distribute anyone except personal use only ****

                (C) Copyright 2005 OAA/ComputingSection

write mail from CFAD0::NAKANO on 2005-05-07 04:29:59(JST).



